Wind_Speed
26 25 23 22 22 22 20 20 20 21 21 20 20 20 18 17 16 15 15 14 14 13 12 11 10 10 10 9 8 8 7 6 6 5 6 6 5 5 5 5 5 5
26 26 25 24 24 23 22 20 20 20 21 20 19 20 20 20 18 16 16 15 15 14 13 12 11 10 10 10 10 9 8 7 7 6 6 6 6 5 5 4 4 5
25 26 26 25 25 24 22 21 20 20 20 20 20 20 20 20 19 18 17 16 15 14 13 12 11 10 10 10 10 10 9 9 8 8 7 7 6 6 5 4 3 4
24 25 26 26 25 25 23 22 22 21 20 21 21 21 21 20 20 19 19 18 17 15 14 13 12 11 10 10 10 10 10 10 9 9 8 8 7 6 6 5 4 3
23 24 25 26 26 25 25 24 23 22 21 20 20 21 22 21 20 19 19 19 19 17 15 14 13 12 11 10 10 10 10 11 11 10 10 9 8 8 7 6 5 5
23 24 24 25 26 26 26 25 24 23 22 20 20 21 21 22 21 20 20 19 19 19 17 15 14 13 12 11 10 10 10 11 11 11 10 10 10 9 8 7 6 6
24 24 24 25 25 26 26 26 25 24 22 21 21 21 21 22 21 21 20 19 19 20 19 17 16 14 13 13 11 11 10 11 11 12 11 11 11 10 10 9 8 8
25 25 25 25 25 26 26 27 26 25 24 23 22 21 21 21 21 20 21 21 20 20 20 19 18 16 15 13 12 12 11 11 11 12 12 12 11 11 11 11 10 10
26 26 26 25 26 26 26 27 27 26 25 25 23 22 21 21 20 19 19 21 21 20 19 19 19 18 16 14 13 12 12 12 12 12 12 13 12 12 12 12 12 11
28 27 27 27 27 27 27 26 27 27 26 26 25 23 22 21 20 18 18 20 21 21 20 19 19 19 17 15 13 13 13 13 12 12 13 13 13 13 13 13 12 12
28 28 28 28 27 27 27 26 27 27 27 26 26 25 23 22 21 20 18 19 20 20 20 18 17 17 17 15 13 13 13 13 13 13 12 13 13 14 14 14 13 13
27 29 29 29 28 27 27 27 27 27 27 27 26 25 24 22 21 21 19 18 18 19 19 19 17 16 16 15 14 14 13 13 13 13 12 12 12 13 14 14 14 14
25 27 28 28 27 27 27 27 27 27 27 27 26 25 25 23 22 21 20 19 18 18 19 18 18 17 16 16 16 15 14 14 14 13 12 12 12 13 14 14 15 15
22 24 26 27 27 27 27 27 28 28 27 27 26 26 25 24 23 21 21 20 20 19 19 19 20 19 17 17 16 16 15 15 15 14 13 13 12 12 13 14 14 15
21 22 23 25 26 27 27 27 28 28 27 27 27 26 26 25 23 22 22 22 21 21 21 21 21 21 19 18 18 17 16 16 16 15 15 14 14 13 14 14 14 14
21 22 22 24 25 26 27 27 27 27 27 27 27 27 26 26 25 23 23 23 22 22 23 23 22 22 21 20 19 19 18 17 17 17 16 16 15 15 14 14 13 13
21 22 22 23 23 24 25 26 26 26 27 26 26 27 26 26 26 25 24 23 23 23 24 24 23 22 21 20 20 20 20 19 18 18 18 17 16 15 15 14 14 14
22 22 22 22 22 23 24 24 25 26 26 26 25 25 26 26 26 26 24 23 24 24 24 24 24 23 22 21 21 21 21 21 20 20 19 19 17 16 15 14 14 14
23 23 22 22 22 22 23 24 25 25 25 25 24 23 25 26 26 26 25 23 24 24 24 24 23 23 22 22 21 21 22 22 22 21 21 20 18 17 15 15 15 15
27 24 23 23 22 22 24 24 24 23 22 23 23 23 24 25 26 27 26 24 23 24 24 24 24 23 23 22 22 21 22 22 23 23 22 21 20 18 17 16 16 15
30 27 25 24 24 24 24 25 24 22 21 22 22 22 22 23 25 26 27 26 24 23 23 24 24 24 24 23 22 22 22 23 23 24 24 23 21 20 18 18 17 17
31 31 29 27 26 25 25 25 25 23 22 21 22 22 21 22 24 26 27 27 26 25 24 24 24 24 24 24 22 21 22 23 24 24 24 24 22 20 19 19 19 18
30 31 31 30 28 27 26 25 25 24 24 23 23 22 21 21 22 24 25 27 27 27 26 24 24 24 24 24 23 22 22 23 23 23 24 24 22 21 20 20 20 20
29 30 32 32 31 29 27 26 26 25 25 25 24 23 22 21 20 21 23 25 27 28 27 26 24 24 23 23 23 23 23 23 23 24 24 24 22 21 22 22 21 20
31 31 31 33 32 31 29 28 27 27 26 26 26 25 24 23 22 21 22 23 25 27 28 28 26 24 23 23 23 24 25 25 25 25 25 24 23 22 23 24 23 21
32 33 33 32 32 32 32 31 30 29 28 28 28 27 27 26 24 23 22 22 23 25 27 28 27 25 24 23 22 23 24 25 25 26 25 23 23 23 24 25 24 22
Wind_Direction
218 220 219 216 215 217 218 216 213 212 214 210 204 202 202 202 202 197 195 194 193 194 195 193 190 190 193 195 193 184 177 170 161 154 141 134 135 135 139 143 137 131
217 219 220 219 217 217 217 218 216 214 215 215 211 207 205 205 206 201 199 200 198 196 198 198 196 196 198 202 203 198 192 186 176 173 166 154 151 150 146 145 143 133
218 219 219 219 219 219 218 217 218 217 216 216 215 214 212 211 209 205 202 204 205 200 199 202 202 202 203 206 207 205 202 198 190 185 183 177 169 163 160 158 152 134
219 219 219 220 220 220 220 218 217 218 218 216 215 216 218 218 216 211 205 204 207 206 203 204 206 207 208 209 211 211 209 206 202 197 192 190 187 181 176 173 173 157
219 220 221 221 221 220 220 218 217 218 220 219 216 216 219 221 221 218 212 206 206 210 210 208 208 211 214 215 215 214 213 211 210 207 201 198 196 195 193 188 186 183
216 218 220 221 222 221 221 219 217 217 219 220 220 218 219 221 222 222 221 214 208 211 214 213 212 212 215 219 220 218 216 215 215 214 211 207 204 201 200 202 203 198
214 216 219 221 222 222 221 220 218 216 217 220 221 222 221 221 221 221 223 222 215 212 213 216 218 217 216 219 223 223 222 220 218 217 217 217 214 209 205 207 211 211
212 214 217 219 221 222 221 220 219 216 215 217 221 223 225 226 224 220 221 224 223 218 214 213 217 222 222 221 223 226 226 224 221 219 220 222 221 217 214 213 215 217
211 214 216 218 219 222 222 222 221 218 216 217 219 222 225 229 230 224 219 221 225 225 219 213 213 219 225 224 222 224 226 226 224 220 219 222 224 223 221 220 220 222
209 212 215 217 218 220 222 222 222 221 219 217 219 220 222 225 229 229 223 219 223 228 227 221 214 214 222 226 223 223 225 228 228 224 220 222 226 229 229 228 225 224
208 210 214 217 218 219 220 221 222 223 222 219 220 221 221 220 222 226 225 221 221 226 230 231 223 215 219 225 226 226 226 229 232 231 228 226 227 231 234 236 234 228
208 209 213 217 218 219 220 220 221 223 223 222 221 222 223 221 218 220 224 223 221 222 227 232 231 223 220 223 228 228 227 230 234 235 236 234 233 234 237 239 240 237
208 209 213 216 218 220 220 221 222 223 224 224 223 224 225 223 219 217 219 221 221 220 221 224 228 226 222 222 226 227 226 228 234 238 240 241 240 241 242 242 242 241
207 208 212 214 217 219 220 222 223 223 224 224 225 225 226 225 222 219 218 218 218 220 219 218 221 222 221 221 224 226 225 224 228 235 239 241 242 243 246 247 246 244
205 206 209 212 216 218 220 222 223 224 225 224 225 226 227 227 226 221 220 218 216 217 219 218 218 218 218 219 222 225 225 224 225 230 234 238 241 243 245 248 249 248
202 203 206 210 214 218 221 223 225 226 226 226 225 226 227 229 229 225 222 220 218 217 218 220 219 218 217 218 220 224 225 224 223 226 230 233 237 240 244 248 251 250
199 200 203 207 212 217 220 223 225 227 229 229 227 226 227 230 231 229 224 221 221 220 220 223 222 220 219 218 219 222 225 226 224 225 229 232 234 237 241 246 251 253
197 197 200 204 208 213 218 222 225 228 230 231 230 227 227 229 233 234 229 222 221 222 223 226 226 225 223 220 219 221 224 228 227 225 228 231 233 235 237 242 248 252
199 198 199 202 206 209 214 219 224 228 230 233 234 231 228 229 232 235 235 227 221 221 223 226 229 229 227 224 223 222 223 227 230 230 230 231 232 234 235 239 245 250
203 202 201 203 206 208 211 217 222 227 230 232 235 233 230 229 230 233 238 235 227 222 222 225 228 230 230 227 226 226 226 228 231 233 234 234 234 234 235 239 243 248
205 205 205 205 207 209 212 216 220 225 228 229 233 234 232 231 230 232 237 239 237 230 224 224 226 229 231 230 228 228 229 231 232 234 237 237 236 236 237 240 243 247
209 208 209 208 209 211 213 217 219 223 226 228 230 233 232 230 230 231 234 238 241 239 233 228 225 226 229 232 232 231 231 233 235 237 239 240 239 239 241 242 245 248
213 212 213 213 213 214 216 218 220 223 226 228 230 232 232 231 230 231 232 235 239 242 241 236 229 225 226 228 231 233 234 235 237 239 242 244 243 243 244 245 246 248
216 216 218 218 219 220 220 220 221 223 225 229 232 234 235 234 233 233 234 233 235 240 244 244 240 233 228 226 227 229 232 235 238 241 244 246 246 246 247 249 250 250
218 220 221 222 223 226 227 225 224 224 225 228 232 235 236 237 235 234 234 234 234 237 240 244 246 243 237 230 227 227 229 233 235 238 242 245 247 248 250 254 256 256
219 221 222 222 223 227 230 231 229 227 226 228 231 234 236 237 237 236 235 236 236 236 238 241 244 246 244 239 234 230 230 232 235 237 240 243 246 249 252 257 260 263
Height
3215 3217 3218 3220 3222 3223 3224 3226 3228 3229 3230 3232 3233 3235 3236 3237 3238 3239 3240 3241 3242 3242 3243 3244 3245 3246 3247 3247 3248 3249 3249 3250 3250 3251 3252 3252 3253 3253 3253 3253 3253 3254
3213 3215 3216 3218 3220 3222 3223 3225 3226 3228 3229 3231 3232 3233 3235 3236 3237 3238 3239 3240 3240 3241 3242 3243 3245 3245 3246 3247 3247 3248 3249 3250 3250 3251 3251 3252 3253 3253 3253 3254 3254 3254
3211 3213 3215 3216 3218 3220 3222 3223 3225 3226 3228 3229 3230 3232 3233 3234 3235 3237 3238 3239 3239 3240 3241 3243 3244 3245 3245 3246 3246 3247 3248 3249 3250 3250 3251 3252 3252 3253 3253 3254 3254 3254
3209 3211 3213 3215 3216 3218 3220 3222 3223 3224 3226 3227 3229 3230 3231 3232 3233 3235 3236 3237 3238 3239 3240 3241 3242 3243 3244 3245 3245 3246 3247 3248 3249 3249 3250 3251 3252 3252 3253 3253 3254 3254
3207 3209 3211 3213 3215 3216 3218 3219 3221 3223 3224 3225 3227 3228 3229 3230 3231 3233 3234 3236 3237 3238 3239 3240 3241 3242 3243 3244 3244 3245 3246 3247 3248 3248 3249 3250 3251 3252 3252 3253 3253 3254
3204 3206 3208 3210 3212 3214 3215 3217 3219 3221 3222 3223 3225 3226 3227 3229 3230 3231 3232 3234 3235 3237 3237 3239 3240 3241 3241 3242 3243 3244 3244 3245 3246 3247 3248 3249 3250 3250 3251 3252 3253 3253
3201 3204 3206 3208 3210 3212 3213 3215 3217 3218 3220 3221 3223 3224 3225 3227 3228 3229 3230 3232 3233 3235 3236 3237 3238 3239 3240 3241 3241 3242 3243 3244 3245 3245 3246 3247 3248 3249 3250 3251 3251 3252
3198 3201 3203 3205 3207 3209 3211 3212 3214 3216 3218 3219 3220 3221 3223 3224 3226 3228 3229 3230 3231 3232 3234 3235 3236 3237 3238 3239 3240 3241 3241 3242 3243 3244 3245 3245 3246 3247 3248 3249 3250 3251
3195 3198 3200 3202 3204 3206 3208 3210 3212 3213 3215 3216 3217 3219 3221 3222 3224 3226 3227 3228 3229 3230 3231 3233 3234 3235 3236 3237 3238 3239 3240 3240 3241 3242 3243 3244 3245 3246 3246 3247 3248 3249
3191 3194 3196 3199 3201 3203 3205 3207 3209 3211 3212 3214 3215 3216 3218 3220 3221 3223 3225 3226 3227 3228 3229 3231 3232 3234 3234 3235 3237 3237 3238 3239 3239 3240 3241 3242 3243 3244 3244 3245 3246 3247
3187 3190 3192 3195 3198 3200 3203 3205 3207 3208 3210 3211 3212 3213 3215 3217 3218 3220 3221 3223 3225 3226 3228 3229 3230 3232 3233 3234 3235 3236 3236 3237 3237 3238 3239 3240 3241 3242 3242 3243 3244 3245
3183 3186 3189 3192 3195 3198 3200 3202 3204 3206 3207 3209 3210 3211 3212 3214 3216 3217 3218 3220 3223 3224 3226 3227 3228 3230 3231 3232 3233 3234 3234 3235 3235 3236 3237 3238 3239 3240 3240 3241 3242 3243
3180 3182 3185 3189 3192 3195 3198 3200 3201 3203 3205 3206 3208 3209 3210 3211 3213 3215 3216 3218 3220 3221 3223 3225 3226 3227 3229 3230 3231 3232 3233 3233 3234 3234 3235 3236 3237 3237 3238 3239 3240 3241
3178 3180 3183 3186 3189 3192 3195 3197 3198 3200 3202 3204 3205 3206 3207 3209 3211 3212 3214 3215 3217 3218 3220 3222 3223 3224 3226 3227 3229 3230 3231 3232 3232 3233 3233 3234 3235 3235 3236 3236 3237 3238
3176 3177 3180 3183 3187 3189 3192 3194 3195 3197 3199 3201 3202 3204 3205 3206 3208 3210 3211 3213 3214 3215 3217 3218 3220 3221 3223 3225 3226 3227 3228 3229 3230 3231 3232 3232 3233 3233 3234 3234 3235 3236
3174 3175 3177 3180 3183 3186 3189 3191 3193 3195 3196 3198 3200 3201 3202 3204 3205 3207 3209 3210 3212 3213 3214 3215 3217 3218 3220 3222 3223 3225 3226 3227 3228 3229 3230 3230 3231 3231 3231 3232 3233 3234
3172 3173 3175 3177 3180 3183 3186 3188 3190 3192 3193 3195 3197 3199 3200 3201 3202 3204 3206 3208 3209 3211 3212 3212 3214 3216 3218 3219 3221 3222 3223 3224 3225 3226 3227 3228 3228 3229 3230 3230 3230 3231
3170 3171 3173 3175 3178 3181 3183 3186 3188 3189 3191 3192 3194 3196 3197 3198 3199 3200 3202 3205 3206 3208 3209 3210 3211 3213 3215 3216 3218 3219 3220 3221 3222 3223 3224 3225 3226 3227 3228 3228 3228 3229
3168 3169 3171 3173 3176 3178 3181 3183 3185 3187 3188 3190 3192 3194 3195 3196 3197 3198 3199 3201 3203 3205 3206 3208 3209 3211 3212 3214 3215 3216 3217 3218 3219 3220 3221 3222 3223 3224 3225 3226 3226 3226
3167 3168 3169 3171 3174 3176 3178 3180 3182 3184 3186 3187 3189 3191 3192 3193 3194 3195 3196 3198 3200 3202 3204 3205 3206 3208 3210 3211 3213 3214 3215 3215 3216 3217 3218 3219 3220 3222 3223 3223 3224 3224
3165 3166 3168 3170 3172 3174 3176 3177 3179 3181 3183 3184 3186 3187 3189 3191 3192 3193 3193 3194 3196 3199 3201 3202 3204 3205 3206 3208 3210 3211 3212 3212 3213 3214 3215 3216 3218 3219 3220 3221 3222 3222
3162 3163 3165 3167 3169 3171 3173 3174 3176 3178 3180 3181 3183 3184 3186 3188 3189 3190 3191 3192 3193 3195 3197 3199 3201 3202 3204 3205 3207 3208 3209 3210 3210 3211 3211 3213 3215 3216 3218 3218 3219 3220
3158 3160 3162 3164 3166 3168 3170 3172 3173 3175 3177 3178 3180 3181 3183 3184 3186 3187 3189 3190 3191 3192 3193 3196 3198 3200 3201 3203 3204 3205 3206 3207 3207 3208 3209 3210 3212 3214 3214 3215 3216 3217
3154 3156 3159 3161 3163 3165 3167 3169 3171 3172 3174 3175 3177 3178 3180 3181 3183 3185 3186 3187 3188 3189 3190 3192 3194 3196 3198 3200 3201 3203 3203 3204 3205 3205 3206 3207 3209 3211 3211 3212 3213 3214
3150 3152 3155 3158 3160 3162 3164 3166 3168 3170 3171 3173 3174 3175 3177 3178 3180 3182 3183 3184 3185 3186 3187 3188 3190 3192 3195 3197 3198 3199 3200 3201 3202 3203 3204 3205 3206 3207 3208 3208 3209 3211
3147 3148 3151 3154 3156 3159 3161 3163 3165 3167 3168 3169 3171 3172 3174 3175 3177 3178 3180 3181 3182 3183 3184 3185 3187 3189 3191 3193 3195 3196 3197 3198 3199 3199 3201 3202 3204 3204 3205 3205 3206 3207